When you browse on this site, cookies collect data to enhance your experience and personalize the content and advertising you see.
Visit our Privacy Policy to learn more. By continuing to use the site, you agree to this use of cookies and data.
  • în România
  • Lista ţărilor
  • Pe 7 zile
  • Temperatura apei
  • Hartă satelitară
  • Meteo pe hartă
  • Widget-uri
  • user-avatar
    Intrare

    Meteo pe oră la Rasskazy

    Astăzi, 18 Februarie, Luni

    Timp Temperatura Precipitaţii Vânt Presiune Umiditate
    00:00 -5°C° 0 mm 4 m/s 742 mmHg 82%
    01:00 -7°C° 0 mm 4 m/s 743 mmHg 84%
    02:00 -6°C° 0 mm 2 m/s 743 mmHg 90%
    03:00 -6°C° 0 mm 2 m/s 744 mmHg 91%
    04:00 -6°C° 0 mm 2 m/s 744 mmHg 92%
    05:00 -8°C° 0 mm 3 m/s 745 mmHg 93%
    06:00 -7°C° 0 mm 2 m/s 746 mmHg 93%
    07:00 -7°C° 0 mm 2 m/s 746 mmHg 93%
    08:00 -8°C° 0 mm 3 m/s 746 mmHg 92%
    09:00 -7°C° 0 mm 3 m/s 747 mmHg 89%
    10:00 -6°C° 0 mm 3 m/s 747 mmHg 85%
    11:00 -4°C° 0 mm 2 m/s 748 mmHg 82%
    12:00 -4°C° 0 mm 2 m/s 748 mmHg 79%
    13:00 -3°C° 0 mm 2 m/s 748 mmHg 76%
    14:00 -3°C° 0 mm 2 m/s 748 mmHg 74%
    15:00 -2°C° 0 mm 1 m/s 748 mmHg 78%
    16:00 -3°C° 0 mm 1 m/s 748 mmHg 82%
    17:00 -4°C° 0 mm 1 m/s 748 mmHg 86%
    18:00 -4°C° 0 mm 1 m/s 748 mmHg 87%
    19:00 -4°C° 0 mm 1 m/s 748 mmHg 88%
    20:00 -6°C° 0 mm 1 m/s 748 mmHg 88%
    21:00 -6°C° 0 mm 1 m/s 748 mmHg 89%
    22:00 -7°C° 0 mm 2 m/s 748 mmHg 89%
    23:00 -7°C° 0 mm 2 m/s 747 mmHg 90%

    Mâine, 19 Februarie, Marţi

    Timp Temperatura Precipitaţii Vânt Presiune Umiditate
    00:00 -8°C° 0 mm 3 m/s 747 mmHg 88%
    01:00 -7°C° 0 mm 3 m/s 747 mmHg 87%
    02:00 -7°C° 0 mm 3 m/s 746 mmHg 85%
    03:00 -8°C° 0 mm 4 m/s 746 mmHg 83%
    04:00 -8°C° 0 mm 4 m/s 745 mmHg 81%
    05:00 -8°C° 0 mm 4 m/s 744 mmHg 79%
    06:00 -8°C° 0 mm 4 m/s 744 mmHg 79%
    07:00 -8°C° 0 mm 4 m/s 743 mmHg 79%
    08:00 -7°C° 0 mm 4 m/s 743 mmHg 78%
    09:00 -6°C° 0 mm 5 m/s 743 mmHg 78%
    10:00 -5°C° 0 mm 5 m/s 742 mmHg 77%
    11:00 -2°C° 0 mm 5 m/s 742 mmHg 76%
    12:00 -2°C° 0 mm 5 m/s 741 mmHg 77%
    13:00 -1°C° 0 mm 5 m/s 740 mmHg 78%
    14:00 -1°C° 0 mm 5 m/s 740 mmHg 79%
    15:00 -1°C° 0 mm 5 m/s 739 mmHg 82%
    16:00 -1°C° 0 mm 5 m/s 738 mmHg 85%
    17:00 -2°C° 0 mm 4 m/s 738 mmHg 87%
    18:00 -2°C° 0 mm 5 m/s 737 mmHg 88%
    19:00 -1°C° 0 mm 5 m/s 737 mmHg 88%
    20:00 -2°C° 0 mm 6 m/s 736 mmHg 89%
    21:00 -1°C° 0 mm 5 m/s 736 mmHg 89%
    22:00 -1°C° 0 mm 5 m/s 735 mmHg 90%
    23:00 -1°C° 0 mm 5 m/s 734 mmHg 91%

    Poimâine, 20 Februarie, Miercuri

    Timp Temperatura Precipitaţii Vânt Presiune Umiditate
    00:00 -1°C° 0.1 mm 5 m/s 734 mmHg 91%
    01:00 -1°C° 0.1 mm 5 m/s 733 mmHg 91%
    02:00 0°C° 0.1 mm 5 m/s 733 mmHg 91%
    03:00 0°C° 0.2 mm 5 m/s 732 mmHg 91%
    04:00 0°C° 0.2 mm 4 m/s 732 mmHg 92%
    05:00 0°C° 0.2 mm 4 m/s 732 mmHg 92%
    06:00 0°C° 0.1 mm 4 m/s 732 mmHg 93%
    07:00 0°C° 0.1 mm 4 m/s 732 mmHg 94%
    08:00 0°C° 0.1 mm 4 m/s 732 mmHg 94%
    09:00 0°C° 0.1 mm 4 m/s 732 mmHg 93%
    10:00 0°C° 0.1 mm 4 m/s 732 mmHg 92%
    11:00 0°C° 0.1 mm 4 m/s 732 mmHg 90%
    12:00 0°C° 0.1 mm 4 m/s 732 mmHg 87%
    13:00 +1°C° 0.1 mm 4 m/s 732 mmHg 84%
    14:00 +1°C° 0.1 mm 5 m/s 732 mmHg 81%
    15:00 0°C° 0.1 mm 5 m/s 732 mmHg 83%
    16:00 0°C° 0.1 mm 5 m/s 731 mmHg 84%
    17:00 0°C° 0.1 mm 5 m/s 731 mmHg 86%
    18:00 0°C° 0.3 mm 5 m/s 731 mmHg 86%
    19:00 -1°C° 0.3 mm 5 m/s 731 mmHg 86%
    20:00 -1°C° 0.3 mm 5 m/s 731 mmHg 86%
    21:00 -1°C° 0.3 mm 5 m/s 731 mmHg 83%
    22:00 -2°C° 0.3 mm 5 m/s 731 mmHg 80%
    23:00 -2°C° 0.3 mm 5 m/s 731 mmHg 77%

    21 Februarie, Joi

    Timp Temperatura Precipitaţii Vânt Presiune Umiditate
    00:00 -4°C° 0.1 mm 5 m/s 732 mmHg 79%
    01:00 -4°C° 0.1 mm 5 m/s 732 mmHg 81%
    02:00 -5°C° 0.1 mm 6 m/s 733 mmHg 82%
    03:00 -5°C° 0.1 mm 5 m/s 733 mmHg 82%
    04:00 -5°C° 0.1 mm 5 m/s 734 mmHg 81%
    05:00 -6°C° 0.1 mm 5 m/s 734 mmHg 80%
    06:00 -6°C° 0.1 mm 6 m/s 735 mmHg 78%
    07:00 -6°C° 0.1 mm 6 m/s 735 mmHg 76%
    08:00 -8°C° 0.1 mm 6 m/s 736 mmHg 74%
    09:00 -8°C° 0.1 mm 6 m/s 736 mmHg 72%
    10:00 -8°C° 0.1 mm 6 m/s 737 mmHg 70%
    11:00 -8°C° 0.1 mm 6 m/s 738 mmHg 68%
    12:00 -9°C° 0 mm 6 m/s 738 mmHg 68%
    13:00 -9°C° 0 mm 6 m/s 739 mmHg 67%
    14:00 -9°C° 0 mm 6 m/s 740 mmHg 67%
    15:00 -9°C° 0 mm 6 m/s 740 mmHg 68%
    16:00 -10°C° 0 mm 5 m/s 741 mmHg 69%
    17:00 -10°C° 0 mm 5 m/s 742 mmHg 70%
    18:00 -11°C° 0 mm 5 m/s 743 mmHg 71%
    19:00 -11°C° 0 mm 5 m/s 744 mmHg 71%
    20:00 -10°C° 0 mm 4 m/s 744 mmHg 72%
    21:00 -11°C° 0 mm 4 m/s 745 mmHg 73%
    22:00 -11°C° 0 mm 4 m/s 746 mmHg 73%
    23:00 -12°C° 0 mm 4 m/s 747 mmHg 74%

    22 Februarie, Vineri

    Timp Temperatura Precipitaţii Vânt Presiune Umiditate
    00:00 -12°C° 0 mm 4 m/s 747 mmHg 75%
    01:00 -12°C° 0 mm 4 m/s 748 mmHg 76%
    02:00 -14°C° 0 mm 4 m/s 749 mmHg 77%
    03:00 -14°C° 0 mm 4 m/s 750 mmHg 77%
    04:00 -14°C° 0 mm 4 m/s 750 mmHg 78%
    05:00 -14°C° 0 mm 4 m/s 751 mmHg 78%
    06:00 -12°C° 0 mm 4 m/s 752 mmHg 79%
    07:00 -12°C° 0 mm 4 m/s 752 mmHg 80%
    08:00 -12°C° 0 mm 4 m/s 753 mmHg 80%
    09:00 -11°C° 0 mm 4 m/s 754 mmHg 76%
    10:00 -10°C° 0 mm 4 m/s 754 mmHg 72%
    11:00 -9°C° 0 mm 4 m/s 754 mmHg 68%
    12:00 -8°C° 0 mm 4 m/s 754 mmHg 64%
    13:00 -8°C° 0 mm 5 m/s 755 mmHg 60%
    14:00 -7°C° 0 mm 5 m/s 755 mmHg 56%
    15:00 -8°C° 0 mm 5 m/s 755 mmHg 57%
    16:00 -8°C° 0 mm 4 m/s 755 mmHg 59%
    17:00 -9°C° 0 mm 4 m/s 756 mmHg 61%
    18:00 -9°C° 0 mm 3 m/s 756 mmHg 64%
    19:00 -9°C° 0 mm 3 m/s 757 mmHg 67%
    20:00 -10°C° 0 mm 3 m/s 757 mmHg 70%
    21:00 -9°C° 0 mm 2 m/s 757 mmHg 74%
    22:00 -10°C° 0 mm 2 m/s 757 mmHg 78%
    23:00 -10°C° 0 mm 2 m/s 757 mmHg 82%

    23 Februarie, Sâmbătă

    Timp Temperatura Precipitaţii Vânt Presiune Umiditate
    00:00 -9°C° 0 mm 1 m/s 757 mmHg 84%
    01:00 -10°C° 0 mm 1 m/s 757 mmHg 85%
    02:00 -10°C° 0 mm 1 m/s 757 mmHg 87%
    03:00 -10°C° 0 mm 1 m/s 756 mmHg 87%
    04:00 -10°C° 0 mm 1 m/s 756 mmHg 87%
    05:00 -10°C° 0 mm 1 m/s 755 mmHg 87%
    06:00 -9°C° 0 mm 1 m/s 755 mmHg 85%
    07:00 -9°C° 0 mm 2 m/s 754 mmHg 82%
    08:00 -9°C° 0 mm 2 m/s 754 mmHg 80%
    09:00 -8°C° 0.2 mm 2 m/s 753 mmHg 83%
    10:00 -8°C° 0.2 mm 2 m/s 752 mmHg 85%
    11:00 -8°C° 0.2 mm 3 m/s 751 mmHg 88%
    12:00 -8°C° 0.3 mm 3 m/s 750 mmHg 88%
    13:00 -7°C° 0.3 mm 3 m/s 750 mmHg 88%
    14:00 -7°C° 0.3 mm 3 m/s 749 mmHg 88%
    15:00 -7°C° 0.1 mm 3 m/s 748 mmHg 89%
    16:00 -7°C° 0.1 mm 3 m/s 748 mmHg 90%
    17:00 -6°C° 0.1 mm 2 m/s 748 mmHg 91%
    18:00 -6°C° 0 mm 2 m/s 748 mmHg 92%
    19:00 -6°C° 0 mm 2 m/s 748 mmHg 93%
    20:00 -6°C° 0 mm 2 m/s 748 mmHg 94%
    21:00 -6°C° 0 mm 2 m/s 748 mmHg 95%
    22:00 -6°C° 0 mm 2 m/s 748 mmHg 95%
    23:00 -5°C° 0 mm 2 m/s 748 mmHg 95%
    Arată mai mult